MOLNIYA 2-10

Last updated on Aug. 5, 2020, 5:33 a.m. UTC

1 07376U 74056A   20217.26075939 -.00000907  00000-0  00000+0 0  9994
2 07376  63.5573 163.5906 6708594 292.0252  12.1764  2.01114655336687
UTC
Height (km)
Latitude
Longitude
Inclination
Orbital Period
UTC large
Height (km)
Speed (km/s)
/
Latitude / Longitude
Inclination (degrees)
Orbital Period (minutes)
Azimuth
Elevation
Range (km)
Doppler Factor
iOS Compass Heading
iOS Angle

Next 30 passes for location: Hong Kong

Rise time Rise Azimuth (degrees) Set time Set Azimuth (degrees) Duration Max altitude (degrees)

No matching passes for this satellites